Danville, IN

7:49 PM EST on November 12, 2019 (GMT -0500)
Vermilion County

Weather History for KDNV - October, 2019

Change the Weather History Date:

Wednesday, October 23, 2019

  Actual Average (KLAF) Record (KLAF)
Temperature  
Mean Temperature 52 °F -  
Max Temperature 67 °F 61 °F 77 °F (1992)
Min Temperature 36 °F 40 °F 23 °F (1969)
Degree Days  
Heating Degree Days 14    
Growing Degree Days 2 (Base 50)    
Moisture  
Dew Point 36 °F    
Average Humidity 56    
Maximum Humidity 86    
Minimum Humidity 34    
Precipitation  
Precipitation 0.00 in - - ()
Sea Level Pressure  
Sea Level Pressure 29.97 in    
Wind  
Wind Speed 11 mph ()    
Max Wind Speed 24 mph    
Max Gust Speed 36 mph    
Visibility 10.0 miles    
Events      
Averages and records for this station are not official NWS values.
T = Trace of Precipitation, MM = Missing Value Source: Averaged Metar Reports

Daily Weather History Graph

Daily Weather History Graph

Search for Another Location

Airport or City:

Astronomy

Oct. 23, 2019 Rise Set
Actual Time 7:09 AM CDT 5:59 PM CDT
Civil Twilight 6:41 AM CDT 6:27 PM CDT
Nautical Twilight 6:10 AM CDT 6:58 PM CDT
Astronomical Twilight 5:38 AM CDT 7:30 PM CDT
Moon 1:27 AM CDT (10/23) 3:50 PM CDT (10/23)
Length of Visible Light 11h 45m
Length of Day
10h 49m
Waning Crescent, 26% of the Moon is Illuminated
Oct 23
Waning Crescent
Oct 27
New
Nov 4
First Quarter
Nov 12
Full
Nov 19
Last Quarter

Hourly Weather History & Observations

Time (CDT) Temp. Windchill Dew Point Humidity Pressure Visibility Wind Dir Wind Speed Gust Speed Precip Events Conditions
12:15 AM 43.0 °F 38.2 °F 33.4 °F 69% 29.91 in 10.0 mi WSW 8.1 mph - N/A   Clear
12:35 AM 42.8 °F 37.5 °F 33.4 °F 70% 29.92 in 10.0 mi WSW 9.2 mph - N/A   Clear
12:55 AM 42.4 °F 37.5 °F 33.1 °F 69% 29.92 in 10.0 mi WSW 8.1 mph - N/A   Clear
1:15 AM 41.4 °F 36.8 °F 33.3 °F 73% 29.92 in 10.0 mi SW 6.9 mph - N/A   Clear
1:35 AM 41.4 °F 35.7 °F 33.1 °F 72% 29.92 in 10.0 mi SW 9.2 mph - N/A   Clear
1:55 AM 41.2 °F 35.5 °F 33.1 °F 73% 29.93 in 10.0 mi WSW 9.2 mph - N/A   Clear
2:15 AM 40.8 °F 36.2 °F 32.9 °F 73% 29.93 in 10.0 mi SW 6.9 mph - N/A   Clear
2:35 AM 40.5 °F 35.1 °F 32.9 °F 74% 29.93 in 10.0 mi SW 8.1 mph - N/A   Clear
2:55 AM 38.7 °F 35.2 °F 32.9 °F 80% 29.93 in 10.0 mi SSW 4.6 mph - N/A   Clear
3:35 AM 36.9 °F 33.1 °F 32.7 °F 85% 29.92 in 10.0 mi SSW 4.6 mph - N/A   Clear
3:55 AM 36.7 °F 32.0 °F 32.7 °F 86% 29.93 in 10.0 mi SSW 5.8 mph - N/A   Clear
4:15 AM 37.9 °F 32.7 °F 32.9 °F 82% 29.93 in 10.0 mi SSW 6.9 mph - N/A   Clear
4:35 AM 37.2 °F 31.2 °F 32.9 °F 84% 29.95 in 10.0 mi SSW 8.1 mph - N/A   Clear
4:55 AM 37.4 °F 32.1 °F 32.7 °F 83% 29.96 in 10.0 mi SSW 6.9 mph - N/A   Clear
5:15 AM 37.2 °F 31.9 °F 32.5 °F 83% 29.96 in 10.0 mi SSW 6.9 mph - N/A   Clear
5:35 AM 37.9 °F 31.5 °F 32.5 °F 81% 29.97 in 10.0 mi SSW 9.2 mph - N/A   Clear
5:55 AM 38.8 °F 32.1 °F 32.5 °F 78% 29.98 in 10.0 mi SSW 10.4 mph - N/A   Clear
6:15 AM 38.8 °F 32.6 °F 32.4 °F 78% 29.98 in 10.0 mi SSW 9.2 mph - N/A   Clear
6:35 AM 38.8 °F 32.6 °F 32.2 °F 77% 29.98 in 10.0 mi SSW 9.2 mph - N/A   Clear
6:55 AM 38.3 °F 33.2 °F 32.4 °F 79% 29.98 in 10.0 mi SSW 6.9 mph - N/A   Clear
7:15 AM 37.4 °F 32.8 °F 32.2 °F 81% 29.98 in 10.0 mi SSW 5.8 mph - N/A   Clear
7:35 AM 38.1 °F 32.3 °F 32.9 °F 81% 29.99 in 10.0 mi SSW 8.1 mph - N/A   Clear
7:55 AM 39.9 °F 33.4 °F 33.3 °F 77% 30.00 in 10.0 mi SSW 10.4 mph - N/A   Clear
8:15 AM 42.1 °F 36.1 °F 34.0 °F 73% 30.01 in 10.0 mi SSW 10.4 mph - N/A   Scattered Clouds
8:35 AM 43.7 °F 37.7 °F 34.3 °F 70% 30.02 in 10.0 mi SSW 11.5 mph - N/A   Mostly Cloudy
8:55 AM 44.4 °F 38.6 °F 34.5 °F 68% 30.01 in 10.0 mi SSW 11.5 mph - N/A   Overcast
9:55 AM 51.8 °F - 37.8 °F 59% 30.01 in 10.0 mi SSW 13.8 mph 19.6 mph N/A   Overcast
10:15 AM 53.8 °F - 37.9 °F 55% 30.01 in 10.0 mi SSW 11.5 mph - N/A   Scattered Clouds
10:35 AM 56.3 °F - 38.3 °F 51% 30.01 in 10.0 mi SSW 15.0 mph - N/A   Clear
10:55 AM 58.5 °F - 38.5 °F 47% 30.01 in 10.0 mi SW 15.0 mph 19.6 mph N/A   Clear
11:15 AM 60.1 °F - 38.7 °F 45% 30.01 in 10.0 mi SSW 15.0 mph 21.9 mph N/A   Clear
11:35 AM 61.9 °F - 36.7 °F 39% 30.00 in 10.0 mi SSW 20.7 mph 27.6 mph N/A   Clear
11:55 AM 63.0 °F - 36.3 °F 37% 30.00 in 10.0 mi SW 19.6 mph 25.3 mph N/A   Clear
12:15 PM 63.5 °F - 35.6 °F 35% 29.99 in 10.0 mi SSW 24.2 mph 27.6 mph N/A   Clear
12:35 PM 64.2 °F - 36.0 °F 35% 29.98 in 10.0 mi SW 23.0 mph 29.9 mph N/A   Clear
12:55 PM 65.1 °F - 36.9 °F 35% 29.97 in 10.0 mi SSW 20.7 mph 28.8 mph N/A   Clear
1:15 PM 64.6 °F - 37.4 °F 37% 29.97 in 10.0 mi SSW 20.7 mph 29.9 mph N/A   Scattered Clouds
1:35 PM 64.6 °F - 37.0 °F 36% 29.96 in 10.0 mi SSW 18.4 mph 29.9 mph N/A   Mostly Cloudy
1:55 PM 66.4 °F - 37.9 °F 35% 29.95 in 10.0 mi SW 18.4 mph 28.8 mph N/A   Scattered Clouds
2:15 PM 66.4 °F - 37.6 °F 35% 29.94 in 10.0 mi SSW 20.7 mph 35.7 mph N/A   Clear
2:35 PM 67.3 °F - 38.7 °F 35% 29.94 in 10.0 mi SSW 21.9 mph - N/A   Clear
2:55 PM 67.3 °F - 38.7 °F 35% 29.94 in 10.0 mi SSW 20.7 mph 27.6 mph N/A   Clear
3:15 PM 67.1 °F - 37.8 °F 34% 29.94 in 10.0 mi SSW 19.6 mph 28.8 mph N/A   Clear
3:35 PM 67.1 °F - 38.7 °F 35% 29.94 in 10.0 mi South 19.6 mph 27.6 mph N/A   Clear
3:55 PM 66.6 °F - 38.3 °F 35% 29.93 in 10.0 mi South 20.7 mph 29.9 mph N/A   Clear
4:15 PM 66.2 °F - 37.9 °F 35% 29.93 in 10.0 mi South 19.6 mph 26.5 mph N/A   Clear
4:35 PM 65.8 °F - 37.9 °F 36% 29.94 in 10.0 mi SSW 19.6 mph 25.3 mph N/A   Clear
4:55 PM 64.4 °F - 37.9 °F 38% 29.95 in 10.0 mi South 13.8 mph 24.2 mph N/A   Scattered Clouds
5:15 PM 64.2 °F - 38.5 °F 39% 29.94 in 10.0 mi South 13.8 mph 23.0 mph N/A   Scattered Clouds
5:35 PM 62.8 °F - 38.5 °F 41% 29.95 in 10.0 mi South 10.4 mph 19.6 mph N/A   Scattered Clouds
5:55 PM 61.7 °F - 38.5 °F 42% 29.95 in 10.0 mi South 13.8 mph - N/A   Scattered Clouds
6:55 PM 58.6 °F - 38.8 °F 48% 29.96 in 10.0 mi South 11.5 mph - N/A   Clear
7:15 PM 57.9 °F - 39.0 °F 49% 29.96 in 10.0 mi South 12.7 mph - N/A   Clear
7:35 PM 57.6 °F - 39.2 °F 50% 29.97 in 10.0 mi South 10.4 mph - N/A   Clear
7:55 PM 57.6 °F - 39.2 °F 50% 29.97 in 10.0 mi South 13.8 mph 19.6 mph N/A   Clear
8:15 PM 57.7 °F - 39.2 °F 50% 29.98 in 10.0 mi South 13.8 mph - N/A   Clear
8:35 PM 57.7 °F - 39.2 °F 50% 29.97 in 10.0 mi South 15.0 mph - N/A   Clear
8:55 PM 57.6 °F - 39.4 °F 51% 29.98 in 10.0 mi South 17.3 mph 21.9 mph N/A   Clear
9:15 PM 57.9 °F - 39.2 °F 50% 29.99 in 10.0 mi South 13.8 mph 21.9 mph N/A   Clear
9:35 PM 58.5 °F - 38.8 °F 48% 29.99 in 10.0 mi South 16.1 mph 24.2 mph N/A   Clear
9:55 PM 58.3 °F - 39.0 °F 49% 29.99 in 10.0 mi South 19.6 mph 24.2 mph N/A   Clear
10:15 PM 58.5 °F - 39.0 °F 48% 29.99 in 10.0 mi South 21.9 mph 29.9 mph N/A   Clear
10:35 PM 58.5 °F - 39.2 °F 49% 29.99 in 10.0 mi South 23.0 mph 28.8 mph N/A   Clear
10:55 PM 58.1 °F - 39.4 °F 50% 29.99 in 10.0 mi SSW 23.0 mph 29.9 mph N/A   Clear
11:15 PM 57.7 °F - 39.7 °F 51% 29.99 in 10.0 mi SSW 21.9 mph 26.5 mph N/A   Clear
11:35 PM 57.6 °F - 39.9 °F 52% 29.99 in 10.0 mi SSW 21.9 mph 31.1 mph N/A   Clear
11:55 PM 57.0 °F - 40.1 °F 53% 30.00 in 10.0 mi SSW 19.6 mph 26.5 mph N/A   Clear